AirNav   Bose ProFlight Series 2 Headset
 
 1103 users online  

NJ72 Hop Brook Farm Airport
Holmdel, New Jersey, USA

GOING TO HOLMDEL?


FAA INFORMATION EFFECTIVE 02 JANUARY 2020

Location

FAA Identifier: NJ72
Lat/Long: 40-21-04.3930N 074-10-52.5150W
40-21.073217N 074-10.875250W
40.3512203,-74.1812542
(estimated)
Elevation: 140 ft. / 43 m (estimated)
Variation: 12W (1985)
Time zone: UTC -5 (UTC -4 during Daylight Saving Time)
Zip code: 07733

Airport Operations

Airport use: Private use. Permission required prior to landing
Control tower: no
ARTCC: NEW YORK CENTER
FSS: MILLVILLE FLIGHT SERVICE STATION
Attendance: UNATNDD
Wind indicator: yes
Segmented circle: no

Airport Communications

WX AWOS-3PT at BLM (10 nm S): 121.625 (732-938-3330)
WX AWOS-3 at LDJ (16 nm N): 124.025 (908-862-7383)
WX AWOS-AV at N12 (17 nm S): 122.8 (732-363-6471)

Nearby radio navigation aids

VOR radial/distance  VOR name  Freq  Var
COLr348/2.6COLTS NECK VOR/DME115.4011W
RBVr068/16.9ROBBINSVILLE VORTAC113.8010W
CRIr231/20.4CANARSIE VOR/DME112.3011W
JFKr240/25.2KENNEDY VOR/DME115.9012W
GXUr055/28.0MC GUIRE VORTAC110.6012W
SBJr129/29.1SOLBERG VOR/DME112.9010W
LGAr221/29.6LA GUARDIA VOR/DME113.1012W
TEBr201/30.3TETERBORO VOR/DME108.4011W
ARDr090/33.8YARDLEY VOR/DME108.2010W
CYNr030/34.0COYLE VORTAC113.4010W
BWZr144/39.7BROADWAY VOR/DME114.2011W

 
NDB name  Hdg/Dist  Freq  Var  ID
LAKEHURST032/19.739611WNEL -. . .-..
CHATHAM167/26.025413WCAT -.-. .- -

Airport Services

Airframe service: NONE
Powerplant service: NONE

Runway Information

Runway 10/28

Dimensions: 2200 x 150 ft. / 671 x 46 m
Surface: turf
RUNWAY 10  RUNWAY 28
Traffic pattern: leftleft
Obstructions: plinestrees

Airport Ownership and Management from official FAA records

Ownership: Privately-owned
Owner: EDGAR L. RACHLIN
P.O. BOX 365
HOLMDEL, NJ 07733
Phone (732) 946-9700
Manager: ROBIN CRUZ MCCLEARN
P.O. BOX 365
HOLMDEL, NJ 07733
Phone (732) 946-9700

Airport Operational Statistics

Aircraft based on the field: 1
Single engine airplanes: 1
    

Additional Remarks

FOR CD CTC MC GUIRE APCH AT 609-754-2767.

Instrument Procedures

There are no published instrument procedures at NJ72.

Some nearby airports with instrument procedures:

3N6 - Old Bridge Airport (8 nm W)
KBLM - Monmouth Executive Airport (10 nm S)
KLDJ - Linden Airport (16 nm N)
N12 - Lakewood Airport (17 nm S)
KNEL - Lakehurst Maxfield Field Airport (20 nm S)
 
Loc | Ops | Rwys | IFR | FBO | Links
Com | Nav | Svcs | Stats | Notes
Area around NJ72 (Hop Brook Farm Airport)
 
Road maps at: MapQuest Bing Google
 
Aerial photo
WARNING: Photo may not be current or correct
Aerial photo of NJ72 (Hop Brook Farm Airport)
Photo taken 21-Nov-2006

Do you have a better or more recent aerial photo of Hop Brook Farm Airport that you would like to share? If so, please send us your photo.

 
Sectional chart

 
Airport distance calculator
Flying to Hop Brook Farm Airport? Find the distance to fly.

From to NJ72

Sunrise and sunset
Times for 25-Jan-2020
 Local
(UTC-5)
 Zulu
(UTC)
Morning civil twilight06:4411:44
Sunrise07:1312:13
Sunset17:0522:05
Evening civil twilight17:3522:35

Current date and time
Zulu (UTC)  26-Jan-2020 03:57:22
Local (UTC-5)  25-Jan-2020 22:57:22
 
METAR
KBLM 
11nm S 
AWOS-3 121.625 732-938-3330
260315Z AUTO 27010KT 10SM SCT016 06/04 A2981 RMK AO2
KLDJ 
16nm N 
260355Z AUTO 00000KT 10SM CLR 06/04 A2980 RMK AO2 T00550035
KEWR 
20nm N 
260351Z 25006KT 10SM FEW017 06/03 A2979 RMK AO2 SLP087 T00560033
KNEL 
21nm S 
260300Z AUTO 28007KT 10SM CLR 04/03 A2981 RMK AO2 SLP094 T00440033 51012 $
KJRB 
22nm N 
260323Z AUTO VRB05KT SCT016 06/04 A2979 RMK AO2 PWINO
TAF
KEWR 
20nm N 
260108Z 2601/2706 26015KT P6SM SCT008 BKN010 OVC018 FM260300 27009KT P6SM BKN050 FM261200 27010KT P6SM SCT050 BKN100 FM261800 27010G16KT P6SM SCT100 SCT250 FM262300 26011KT P6SM SCT120 SCT250
NOTAMs
Click for the latest NOTAMs
NOTAMs are issued by the DoD/FAA and will open in a separate window not controlled by AirNav.

 

 
 

Would you like to see your business listed on this page?

 If your business provides an interesting product or service to pilots, flight crews, aircraft, or users of the Hop Brook Farm Airport, you should consider listing it here.  To start the listing process, click on the button below
 
Add a business
 

Other Pages about Hop Brook Farm Airport

Update a link
 
Copyright © AirNav, LLC. All rights reserved. Privacy Policy  Contact